{"data":{"norad_id":66628,"epoch":"2026-05-25T03:32:58.923744Z","epoch_age_seconds":52336,"freshness":"FRESH","line1":"1 66628U 25271M   26145.14790421  .00018056  00000+0  54399-3 0  9993","line2":"2 66628  53.1579 143.3139 0001067  82.6605 277.4519 15.34414677 29294","mean_motion":15.34414677,"eccentricity":0.0001067,"inclination_deg":53.1579,"raan_deg":143.3139,"arg_perigee_deg":82.6605,"mean_anomaly_deg":277.4519,"bstar":0.00054399,"rev_number":2929,"period_min":93.846860407736,"perigee_km":461.92970441871,"apogee_km":463.38953041687,"semimajor_km":6840.7966174178,"source":"CELESTRAK","updated_at":"2026-05-25T13:38:21.296321Z"}}